Time,TemperatureF,DewpointF,PressureIn,WindDirection,WindDirectionDegrees,WindSpeedMPH,WindSpeedGustMPH,Humidity,HourlyPrecipIn,Conditions,Clouds,dailyrainin,SoftwareType,DateUTC
2013-02-28 00:02:00,47.0,35.0,29.75,North,360,1.0,-999.0,64,-99.99,,,-99.99,,2013-02-28 05:02:00,
2013-02-28 00:11:00,47.0,35.0,29.75,North,360,1.0,-999.0,64,-99.99,,,-99.99,,2013-02-28 05:11:00,
2013-02-28 00:22:00,47.0,36.0,29.75,WNW,295,2.0,-999.0,65,-99.99,,,-99.99,,2013-02-28 05:22:00,
2013-02-28 00:32:00,47.0,36.0,29.76,North,349,1.0,-999.0,65,-99.99,,,-99.99,,2013-02-28 05:32:00,
2013-02-28 00:42:00,47.0,36.0,29.76,North,349,1.0,-999.0,65,-99.99,,,-99.99,,2013-02-28 05:42:00,
2013-02-28 00:52:00,47.0,36.0,29.75,NNW,332,1.0,-999.0,65,-99.99,,,-99.99,,2013-02-28 05:52:00,
2013-02-28 01:02:00,46.0,35.0,29.75,South,191,1.0,-999.0,66,-99.99,,,-99.99,,2013-02-28 06:02:00,
2013-02-28 01:11:00,46.0,35.0,29.75,South,191,1.0,-999.0,66,-99.99,,,-99.99,,2013-02-28 06:11:00,
2013-02-28 01:22:00,46.0,35.0,29.76,WNW,289,1.0,-999.0,66,-99.99,,,-99.99,,2013-02-28 06:22:00,
2013-02-28 01:32:00,45.0,35.0,29.76,WSW,244,0.0,-999.0,67,-99.99,,,-99.99,,2013-02-28 06:32:00,
2013-02-28 01:42:00,45.0,35.0,29.76,WSW,244,0.0,-999.0,67,-99.99,,,-99.99,,2013-02-28 06:42:00,
2013-02-28 01:52:00,45.0,35.0,29.76,NW,320,0.0,-999.0,67,-99.99,,,-99.99,,2013-02-28 06:52:00,
2013-02-28 02:01:00,45.0,34.0,29.75,SE,134,1.0,-999.0,66,-99.99,,,-99.99,,2013-02-28 07:01:00,
2013-02-28 02:11:00,45.0,34.0,29.75,SE,134,1.0,-999.0,66,-99.99,,,-99.99,,2013-02-28 07:11:00,
2013-02-28 02:22:00,44.0,33.0,29.75,West,279,1.0,-999.0,64,-99.99,,,-99.99,,2013-02-28 07:22:00,
2013-02-28 02:32:00,44.0,31.0,29.75,North,360,2.0,-999.0,60,-99.99,,,-99.99,,2013-02-28 07:32:00,
2013-02-28 02:42:00,44.0,31.0,29.75,North,360,2.0,-999.0,60,-99.99,,,-99.99,,2013-02-28 07:42:00,
2013-02-28 02:51:00,45.0,31.0,29.74,NNW,328,2.0,-999.0,57,-99.99,,,-99.99,,2013-02-28 07:51:00,
2013-02-28 03:01:00,44.0,29.0,29.74,North,360,3.0,-999.0,56,-99.99,,,-99.99,,2013-02-28 08:01:00,
2013-02-28 03:11:00,44.0,29.0,29.74,North,360,3.0,-999.0,56,-99.99,,,-99.99,,2013-02-28 08:11:00,
2013-02-28 03:22:00,44.0,30.0,29.74,NW,313,2.0,-999.0,57,-99.99,,,-99.99,,2013-02-28 08:22:00,
2013-02-28 03:32:00,43.0,29.0,29.74,SW,234,2.0,-999.0,58,-99.99,,,-99.99,,2013-02-28 08:32:00,
2013-02-28 03:42:00,43.0,29.0,29.74,SW,234,2.0,-999.0,58,-99.99,,,-99.99,,2013-02-28 08:42:00,
2013-02-28 03:52:00,43.0,30.0,29.73,NNE,32,2.0,-999.0,60,-99.99,,,-99.99,,2013-02-28 08:52:00,
2013-02-28 04:03:00,42.0,29.0,29.73,NNW,343,2.0,-999.0,60,-99.99,,,-99.99,,2013-02-28 09:03:00,
2013-02-28 04:12:00,42.0,29.0,29.73,NNW,343,2.0,-999.0,60,-99.99,,,-99.99,,2013-02-28 09:12:00,
2013-02-28 04:22:00,42.0,29.0,29.73,NNW,343,2.0,-999.0,60,-99.99,,,-99.99,,2013-02-28 09:22:00,
2013-02-28 04:32:00,42.0,29.0,29.74,North,355,1.0,-999.0,60,-99.99,,,-99.99,,2013-02-28 09:32:00,
2013-02-28 04:42:00,42.0,29.0,29.74,North,355,1.0,-999.0,60,-99.99,,,-99.99,,2013-02-28 09:42:00,
2013-02-28 04:53:00,41.0,28.0,29.73,SW,218,2.0,-999.0,60,-99.99,,,-99.99,,2013-02-28 09:53:00,
2013-02-28 05:02:00,41.0,29.0,29.74,WNW,284,1.0,-999.0,61,-99.99,,,-99.99,,2013-02-28 10:02:00,
2013-02-28 05:12:00,41.0,29.0,29.74,WNW,284,1.0,-999.0,61,-99.99,,,-99.99,,2013-02-28 10:12:00,
2013-02-28 05:22:00,41.0,29.0,29.75,WNW,298,1.0,-999.0,62,-99.99,,,-99.99,,2013-02-28 10:22:00,
2013-02-28 05:32:00,40.0,28.0,29.74,SSW,207,1.0,-999.0,63,-99.99,,,-99.99,,2013-02-28 10:32:00,
2013-02-28 05:42:00,40.0,28.0,29.74,SSW,207,1.0,-999.0,63,-99.99,,,-99.99,,2013-02-28 10:42:00,
2013-02-28 05:52:00,40.0,28.0,29.75,NNW,327,1.0,-999.0,63,-99.99,,,-99.99,,2013-02-28 10:52:00,
2013-02-28 06:02:00,40.0,29.0,29.75,SSE,167,0.0,-999.0,64,-99.99,,,-99.99,,2013-02-28 11:02:00,
2013-02-28 06:11:00,40.0,29.0,29.75,SSE,167,0.0,-999.0,64,-99.99,,,-99.99,,2013-02-28 11:11:00,
2013-02-28 06:22:00,39.0,28.0,29.75,SSE,153,1.0,-999.0,64,-99.99,,,-99.99,,2013-02-28 11:22:00,
2013-02-28 06:32:00,39.0,28.0,29.75,WSW,250,1.0,-999.0,65,-99.99,,,-99.99,,2013-02-28 11:32:00,
2013-02-28 06:42:00,39.0,28.0,29.75,WSW,250,1.0,-999.0,65,-99.99,,,-99.99,,2013-02-28 11:42:00,
2013-02-28 06:52:00,39.0,28.0,29.75,West,267,2.0,-999.0,64,-99.99,,,-99.99,,2013-02-28 11:52:00,
2013-02-28 07:02:00,39.0,27.0,29.75,NNW,338,1.0,-999.0,62,-99.99,,,-99.99,,2013-02-28 12:02:00,
2013-02-28 07:12:00,39.0,27.0,29.75,NNW,338,1.0,-999.0,62,-99.99,,,-99.99,,2013-02-28 12:12:00,
2013-02-28 07:22:00,38.0,26.0,29.76,NNW,333,1.0,-999.0,61,-99.99,,,-99.99,,2013-02-28 12:22:00,
2013-02-28 07:32:00,38.0,25.0,29.77,NW,322,2.0,-999.0,60,-99.99,,,-99.99,,2013-02-28 12:32:00,
2013-02-28 07:42:00,38.0,25.0,29.77,NW,322,2.0,-999.0,60,-99.99,,,-99.99,,2013-02-28 12:42:00,
2013-02-28 07:52:00,38.0,25.0,29.78,NW,315,1.0,-999.0,60,-99.99,,,-99.99,,2013-02-28 12:52:00,
2013-02-28 08:02:00,39.0,26.0,29.78,WNW,301,0.0,-999.0,59,-99.99,,,-99.99,,2013-02-28 13:02:00,
2013-02-28 08:12:00,39.0,26.0,29.78,WNW,301,0.0,-999.0,59,-99.99,,,-99.99,,2013-02-28 13:12:00,
2013-02-28 08:22:00,39.0,25.0,29.79,NW,317,1.0,-999.0,58,-99.99,,,-99.99,,2013-02-28 13:22:00,
2013-02-28 08:32:00,40.0,26.0,29.79,SSW,196,1.0,-999.0,56,-99.99,,,-99.99,,2013-02-28 13:32:00,
2013-02-28 08:42:00,40.0,26.0,29.79,SSW,196,1.0,-999.0,56,-99.99,,,-99.99,,2013-02-28 13:42:00,
2013-02-28 08:52:00,41.0,26.0,29.80,SW,217,1.0,-999.0,55,-99.99,,,-99.99,,2013-02-28 13:52:00,
2013-02-28 09:02:00,41.0,26.0,29.81,NW,324,1.0,-999.0,54,-99.99,,,-99.99,,2013-02-28 14:02:00,
2013-02-28 09:12:00,42.0,26.0,29.81,West,269,1.0,-999.0,53,-99.99,,,-99.99,,2013-02-28 14:12:00,
2013-02-28 09:22:00,42.0,26.0,29.81,West,269,1.0,-999.0,53,-99.99,,,-99.99,,2013-02-28 14:22:00,
2013-02-28 09:32:00,43.0,27.0,29.81,West,268,2.0,-999.0,52,-99.99,,,-99.99,,2013-02-28 14:32:00,
2013-02-28 09:42:00,43.0,27.0,29.81,West,268,2.0,-999.0,52,-99.99,,,-99.99,,2013-02-28 14:42:00,
2013-02-28 09:52:00,43.0,27.0,29.81,SSW,207,1.0,-999.0,52,-99.99,,,-99.99,,2013-02-28 14:52:00,
2013-02-28 10:02:00,43.0,27.0,29.81,WNW,296,2.0,-999.0,52,-99.99,,,-99.99,,2013-02-28 15:02:00,
2013-02-28 10:11:00,43.0,27.0,29.81,WNW,296,2.0,-999.0,52,-99.99,,,-99.99,,2013-02-28 15:11:00,
2013-02-28 10:22:00,44.0,27.0,29.81,West,266,2.0,-999.0,51,-99.99,,,-99.99,,2013-02-28 15:22:00,
2013-02-28 10:32:00,44.0,28.0,29.81,West,265,3.0,-999.0,52,-99.99,,,-99.99,,2013-02-28 15:32:00,
2013-02-28 10:42:00,44.0,28.0,29.81,West,265,3.0,-999.0,52,-99.99,,,-99.99,,2013-02-28 15:42:00,
2013-02-28 10:52:00,45.0,27.0,29.80,SSW,213,2.0,-999.0,50,-99.99,,,-99.99,,2013-02-28 15:52:00,
2013-02-28 11:02:00,46.0,27.0,29.80,North,355,3.0,-999.0,48,-99.99,,,-99.99,,2013-02-28 16:02:00,
2013-02-28 11:12:00,46.0,27.0,29.80,North,355,3.0,-999.0,48,-99.99,,,-99.99,,2013-02-28 16:12:00,
2013-02-28 11:22:00,45.0,27.0,29.81,West,269,5.0,-999.0,50,-99.99,,,-99.99,,2013-02-28 16:22:00,
2013-02-28 11:32:00,46.0,28.0,29.81,WNW,302,4.0,-999.0,50,-99.99,,,-99.99,,2013-02-28 16:32:00,
2013-02-28 11:42:00,46.0,28.0,29.81,WNW,302,4.0,-999.0,50,-99.99,,,-99.99,,2013-02-28 16:42:00,
2013-02-28 11:52:00,46.0,28.0,29.81,SE,142,3.0,-999.0,49,-99.99,,,-99.99,,2013-02-28 16:52:00,
2013-02-28 12:02:00,46.0,27.0,29.81,NW,307,4.0,-999.0,48,-99.99,,,-99.99,,2013-02-28 17:02:00,
2013-02-28 12:12:00,46.0,28.0,29.81,NW,315,7.0,-999.0,49,-99.99,,,-99.99,,2013-02-28 17:12:00,
2013-02-28 12:22:00,46.0,28.0,29.81,NW,315,7.0,-999.0,49,-99.99,,,-99.99,,2013-02-28 17:22:00,
2013-02-28 12:32:00,46.0,28.0,29.81,NW,315,6.0,-999.0,49,-99.99,,,-99.99,,2013-02-28 17:32:00,
2013-02-28 12:42:00,46.0,28.0,29.81,NW,315,6.0,-999.0,49,-99.99,,,-99.99,,2013-02-28 17:42:00,
2013-02-28 12:52:00,48.0,29.0,29.81,NNW,329,5.0,-999.0,47,-99.99,,,-99.99,,2013-02-28 17:52:00,
2013-02-28 13:02:00,47.0,28.0,29.80,West,279,6.0,-999.0,47,-99.99,,,-99.99,,2013-02-28 18:02:00,
2013-02-28 13:12:00,47.0,28.0,29.80,West,279,6.0,-999.0,47,-99.99,,,-99.99,,2013-02-28 18:12:00,
2013-02-28 13:22:00,47.0,27.0,29.80,WNW,294,6.0,-999.0,46,-99.99,,,-99.99,,2013-02-28 18:22:00,
2013-02-28 13:32:00,48.0,27.0,29.79,SE,146,4.0,-999.0,43,-99.99,,,-99.99,,2013-02-28 18:32:00,
2013-02-28 13:42:00,48.0,27.0,29.79,SE,146,4.0,-999.0,43,-99.99,,,-99.99,,2013-02-28 18:42:00,
2013-02-28 13:52:00,48.0,26.0,29.79,NW,315,5.0,-999.0,42,-99.99,,,-99.99,,2013-02-28 18:52:00,
2013-02-28 14:02:00,48.0,27.0,29.79,North,360,4.0,-999.0,44,-99.99,,,-99.99,,2013-02-28 19:02:00,
2013-02-28 14:12:00,48.0,27.0,29.79,North,360,4.0,-999.0,44,-99.99,,,-99.99,,2013-02-28 19:12:00,
2013-02-28 14:22:00,50.0,27.0,29.79,NNW,338,5.0,-999.0,41,-99.99,,,-99.99,,2013-02-28 19:22:00,
2013-02-28 14:32:00,51.0,28.0,29.79,ENE,74,4.0,-999.0,41,-99.99,,,-99.99,,2013-02-28 19:32:00,
2013-02-28 14:42:00,51.0,28.0,29.79,ENE,74,4.0,-999.0,41,-99.99,,,-99.99,,2013-02-28 19:42:00,
2013-02-28 14:52:00,50.0,27.0,29.79,SSE,164,4.0,-999.0,41,-99.99,,,-99.99,,2013-02-28 19:52:00,
2013-02-28 15:01:00,50.0,27.0,29.79,ESE,118,7.0,-999.0,41,-99.99,,,-99.99,,2013-02-28 20:01:00,
2013-02-28 15:12:00,50.0,27.0,29.79,ESE,118,7.0,-999.0,41,-99.99,,,-99.99,,2013-02-28 20:12:00,
2013-02-28 15:22:00,51.0,28.0,29.79,NW,311,5.0,-999.0,40,-99.99,,,-99.99,,2013-02-28 20:22:00,
2013-02-28 15:32:00,50.0,27.0,29.79,WNW,300,4.0,-999.0,41,-99.99,,,-99.99,,2013-02-28 20:32:00,
2013-02-28 15:42:00,50.0,27.0,29.79,WNW,300,4.0,-999.0,41,-99.99,,,-99.99,,2013-02-28 20:42:00,
2013-02-28 15:52:00,51.0,28.0,29.80,North,355,4.0,-999.0,40,-99.99,,,-99.99,,2013-02-28 20:52:00,
2013-02-28 16:02:00,50.0,27.0,29.79,NW,321,6.0,-999.0,41,-99.99,,,-99.99,,2013-02-28 21:02:00,
2013-02-28 16:11:00,50.0,27.0,29.79,NW,321,6.0,-999.0,41,-99.99,,,-99.99,,2013-02-28 21:11:00,
2013-02-28 16:22:00,49.0,26.0,29.80,WNW,292,7.0,-999.0,41,-99.99,,,-99.99,,2013-02-28 21:22:00,
2013-02-28 16:32:00,49.0,26.0,29.80,West,269,8.0,-999.0,41,-99.99,,,-99.99,,2013-02-28 21:32:00,
2013-02-28 16:42:00,49.0,26.0,29.80,West,269,8.0,-999.0,41,-99.99,,,-99.99,,2013-02-28 21:42:00,
2013-02-28 16:52:00,49.0,26.0,29.82,WNW,287,7.0,-999.0,41,-99.99,,,-99.99,,2013-02-28 21:52:00,
2013-02-28 17:02:00,49.0,27.0,29.82,North,350,4.0,-999.0,43,-99.99,,,-99.99,,2013-02-28 22:02:00,
2013-02-28 17:11:00,49.0,27.0,29.82,North,350,4.0,-999.0,43,-99.99,,,-99.99,,2013-02-28 22:11:00,
2013-02-28 17:22:00,48.0,27.0,29.83,NNW,333,7.0,-999.0,43,-99.99,,,-99.99,,2013-02-28 22:22:00,
2013-02-28 17:32:00,47.0,27.0,29.83,SSW,196,7.0,-999.0,45,-99.99,,,-99.99,,2013-02-28 22:32:00,
2013-02-28 17:42:00,47.0,27.0,29.83,SSW,196,7.0,-999.0,45,-99.99,,,-99.99,,2013-02-28 22:42:00,
2013-02-28 17:52:00,46.0,26.0,29.84,NW,310,4.0,-999.0,46,-99.99,,,-99.99,,2013-02-28 22:52:00,
2013-02-28 18:02:00,45.0,26.0,29.84,NNW,336,4.0,-999.0,47,-99.99,,,-99.99,,2013-02-28 23:02:00,
2013-02-28 18:12:00,45.0,26.0,29.84,NNW,336,4.0,-999.0,47,-99.99,,,-99.99,,2013-02-28 23:12:00,
2013-02-28 18:22:00,45.0,27.0,29.85,West,265,3.0,-999.0,48,-99.99,,,-99.99,,2013-02-28 23:22:00,
2013-02-28 18:32:00,44.0,26.0,29.85,North,349,3.0,-999.0,49,-99.99,,,-99.99,,2013-02-28 23:32:00,
2013-02-28 18:42:00,44.0,26.0,29.85,North,349,3.0,-999.0,49,-99.99,,,-99.99,,2013-02-28 23:42:00,
2013-02-28 18:52:00,43.0,26.0,29.86,West,273,2.0,-999.0,50,-99.99,,,-99.99,,2013-02-28 23:52:00,
2013-02-28 19:02:00,43.0,26.0,29.86,West,273,2.0,-999.0,50,-99.99,,,-99.99,,2013-03-01 00:02:00,
2013-02-28 19:11:00,43.0,26.0,29.86,West,273,2.0,-999.0,50,-99.99,,,-99.99,,2013-03-01 00:11:00,
2013-02-28 19:22:00,42.0,26.0,29.87,South,184,1.0,-999.0,52,-99.99,,,-99.99,,2013-03-01 00:22:00,
2013-02-28 19:32:00,41.0,25.0,29.87,SW,216,1.0,-999.0,53,-99.99,,,-99.99,,2013-03-01 00:32:00,
2013-02-28 19:42:00,41.0,25.0,29.87,SW,216,1.0,-999.0,53,-99.99,,,-99.99,,2013-03-01 00:42:00,
2013-02-28 19:51:00,41.0,26.0,29.87,WNW,303,1.0,-999.0,54,-99.99,,,-99.99,,2013-03-01 00:51:00,
2013-02-28 20:01:00,41.0,26.0,29.87,WNW,303,1.0,-999.0,54,-99.99,,,-99.99,,2013-03-01 01:01:00,
2013-02-28 20:11:00,41.0,26.0,29.87,WNW,303,1.0,-999.0,54,-99.99,,,-99.99,,2013-03-01 01:11:00,
2013-02-28 20:22:00,40.0,26.0,29.88,WNW,302,1.0,-999.0,56,-99.99,,,-99.99,,2013-03-01 01:22:00,
2013-02-28 20:32:00,40.0,26.0,29.89,NW,309,2.0,-999.0,57,-99.99,,,-99.99,,2013-03-01 01:32:00,
2013-02-28 20:42:00,40.0,26.0,29.89,NW,309,2.0,-999.0,57,-99.99,,,-99.99,,2013-03-01 01:42:00,
2013-02-28 20:52:00,40.0,26.0,29.89,North,355,2.0,-999.0,57,-99.99,,,-99.99,,2013-03-01 01:52:00,
2013-02-28 21:01:00,39.0,25.0,29.88,North,350,3.0,-999.0,57,-99.99,,,-99.99,,2013-03-01 02:01:00,
2013-02-28 21:11:00,39.0,25.0,29.89,NW,315,5.0,-999.0,57,-99.99,,,-99.99,,2013-03-01 02:11:00,
2013-02-28 21:22:00,39.0,25.0,29.89,NW,315,5.0,-999.0,57,-99.99,,,-99.99,,2013-03-01 02:22:00,
2013-02-28 21:32:00,39.0,25.0,29.89,NW,320,3.0,-999.0,58,-99.99,,,-99.99,,2013-03-01 02:32:00,
2013-02-28 21:42:00,39.0,25.0,29.89,NW,320,3.0,-999.0,58,-99.99,,,-99.99,,2013-03-01 02:42:00,
2013-02-28 21:52:00,38.0,25.0,29.90,NW,326,2.0,-999.0,59,-99.99,,,-99.99,,2013-03-01 02:52:00,
2013-02-28 22:02:00,38.0,25.0,29.90,NW,326,1.0,-999.0,60,-99.99,,,-99.99,,2013-03-01 03:02:00,
2013-02-28 22:12:00,38.0,25.0,29.90,NW,326,1.0,-999.0,60,-99.99,,,-99.99,,2013-03-01 03:12:00,
2013-02-28 22:22:00,37.0,25.0,29.90,NW,325,0.0,-999.0,61,-99.99,,,-99.99,,2013-03-01 03:22:00,
2013-02-28 22:32:00,37.0,25.0,29.91,WNW,297,0.0,-999.0,62,-99.99,,,-99.99,,2013-03-01 03:32:00,
2013-02-28 22:42:00,37.0,25.0,29.91,WNW,297,0.0,-999.0,62,-99.99,,,-99.99,,2013-03-01 03:42:00,
2013-02-28 22:52:00,37.0,25.0,29.90,WNW,297,1.0,-999.0,61,-99.99,,,-99.99,,2013-03-01 03:52:00,
2013-02-28 23:01:00,37.0,25.0,29.90,WNW,297,0.0,-999.0,61,-99.99,,,-99.99,,2013-03-01 04:01:00,
2013-02-28 23:12:00,37.0,25.0,29.90,WNW,297,0.0,-999.0,61,-99.99,,,-99.99,,2013-03-01 04:12:00,
2013-02-28 23:22:00,36.0,25.0,29.89,WNW,297,0.0,-999.0,65,-99.99,,,-99.99,,2013-03-01 04:22:00,
2013-02-28 23:32:00,35.0,26.0,29.89,WNW,296,0.0,-999.0,68,-99.99,,,-99.99,,2013-03-01 04:32:00,
2013-02-28 23:42:00,35.0,26.0,29.89,WNW,296,0.0,-999.0,68,-99.99,,,-99.99,,2013-03-01 04:42:00,
2013-02-28 23:52:00,34.0,25.0,29.90,WNW,297,0.0,-999.0,69,-99.99,,,-99.99,,2013-03-01 04:52:00,